Overview Statistics Trail Chart Weather Telemetry Raw packets
 

This is the latest recevied weather packets stored in our database for station/object VE8SKI. If no packets are shown the sender has not sent any weather packets the latest 10 day(s).

<< 57 58 59 60 61 62 63 >>
Time Temp. Humidity Pressure Rain* Wind** Luminosity Snow
1777719997 -1.67° C 96% 1018.9 hPa 0 mm 1.34 m/s, 34° - -
1777719697 -1.67° C 96% 1019 hPa 0 mm 1.34 m/s, 49° - -
1777719397 -1.67° C 95% 1018.9 hPa 0 mm 0.89 m/s, 31° - -
1777719094 -1.67° C 95% 1018.9 hPa 0 mm 1.34 m/s, 31° - -
1777718795 -1.67° C 95% 1019 hPa 0 mm 0.89 m/s, 31° - -
1777718495 -1.67° C 95% 1018.9 hPa 0 mm 0.45 m/s, 48° - -
1777718195 -1.67° C 95% 1018.9 hPa 0 mm 0.89 m/s, 25° - -
1777717895 -1.67° C 95% 1018.9 hPa 0 mm 0.89 m/s, 18° - -
1777717596 -1.11° C 95% 1018.8 hPa 0 mm 0.89 m/s, 4° - -
1777717293 -1.11° C 95% 1018.8 hPa 0 mm 1.34 m/s, 30° - -
1777716993 -1.11° C 95% 1018.7 hPa 0 mm 0.89 m/s, 53° - -
1777716694 -1.11° C 95% 1018.8 hPa 0 mm 1.34 m/s, 38° - -
1777716394 -1.11° C 94% 1018.7 hPa 0 mm 1.34 m/s, 39° - -
1777716094 -1.11° C 95% 1018.7 hPa 0 mm 1.79 m/s, 46° - -
1777715794 -1.11° C 95% 1018.7 hPa 0 mm 1.34 m/s, 35° - -
1777715492 -1.11° C 95% 1018.7 hPa 0 mm 0.89 m/s, 25° - -
1777715192 -1.11° C 95% 1018.6 hPa 0 mm 1.34 m/s, 41° - -
1777714892 -1.11° C 95% 1018.5 hPa 0 mm 1.79 m/s, 32° - -
1777714592 -1.11° C 94% 1018.5 hPa 0 mm 0.89 m/s, 35° - -
1777714292 -1.11° C 94% 1018.4 hPa 0 mm 0.89 m/s, 38° - -
1777713993 -1.11° C 93% 1018.4 hPa 0 mm 0 m/s - -
1777713690 -0.56° C 93% 1018.3 hPa 0 mm 0 m/s - -
1777713390 -0.56° C 93% 1018.2 hPa 0 mm 0.89 m/s, 42° - -
1777713091 -0.56° C 93% 1018.3 hPa 0 mm 0.45 m/s, 32° - -
1777712791 -0.56° C 93% 1018.2 hPa 0 mm 1.34 m/s, 28° - -

* Rain latest hour (hover to see other rain measurements)
** Current wind speed in m/s (hover to see current wind gust speed)